CDT,Max TemperatureF,Mean TemperatureF,Min TemperatureF,Max Dew PointF,MeanDew PointF,Min DewpointF,Max Humidity, Mean Humidity, Min Humidity, Max Sea Level PressureIn, Mean Sea Level PressureIn, Min Sea Level PressureIn, Max VisibilityMiles, Mean VisibilityMiles, Min VisibilityMiles, Max Wind SpeedMPH, Mean Wind SpeedMPH, Max Gust SpeedMPH,PrecipitationIn, CloudCover, Events, WindDirDegrees
2013-7-1,82,66,50,54,51,48,89,61,33,30.22,30.18,30.14,10,9,6,15,5,21,0.00,1,,336
2013-7-2,84,69,53,60,55,50,90,62,34,30.17,30.12,30.07,10,10,8,14,4,17,0.00,3,Thunderstorm,274
2013-7-3,84,69,53,61,55,52,100,66,32,30.08,30.01,29.92,10,7,1,14,5,18,0.00,0,,172
2013-7-4,88,73,57,57,55,52,86,60,34,29.94,29.88,29.82,10,10,9,24,14,33,0.00,0,,170
2013-7-5,88,79,70,64,59,53,61,51,40,29.85,29.81,29.77,10,10,10,24,15,32,T,2,Rain,175
2013-7-6,91,82,73,67,62,56,69,57,44,29.80,29.76,29.73,10,10,10,21,14,28,0.00,0,,162
2013-7-7,92,79,65,71,66,62,93,71,49,29.92,29.83,29.78,10,9,5,26,5,31,T,0,Rain,114
2013-7-8,91,79,66,72,69,64,93,73,52,29.95,29.92,29.88,10,9,6,18,5,22,0.23,1,Rain-Thunderstorm,97
2013-7-9,91,80,69,73,69,63,93,71,49,29.99,29.91,29.83,10,9,2,21,7,26,0.16,3,Rain-Thunderstorm,41
2013-7-10,83,73,63,65,63,61,100,74,47,30.09,30.05,29.99,10,10,6,13,5,17,0.00,0,,79
2013-7-11,87,75,63,63,61,59,93,68,42,30.06,30.00,29.91,10,10,6,22,12,28,0.00,0,,142
2013-7-12,94,82,70,71,65,58,70,58,46,29.94,29.88,29.82,10,10,10,25,16,35,0.00,0,,157
2013-7-13,94,86,77,73,71,69,79,64,49,29.91,29.87,29.84,10,10,10,23,12,29,0.00,0,,158
2013-7-14,82,74,66,70,67,61,97,74,51,30.14,30.01,29.89,10,9,5,23,10,29,0.14,3,Rain-Thunderstorm,131
2013-7-15,87,73,59,69,62,58,97,70,42,30.19,30.15,30.10,10,9,4,15,6,23,0.00,1,,142
2013-7-16,88,76,63,66,63,62,100,72,43,30.23,30.19,30.14,10,9,2,22,10,30,0.00,0,,181
2013-7-17,92,79,65,68,65,64,87,64,41,30.27,30.21,30.12,10,10,7,20,9,25,0.00,0,,178
2013-7-18,93,82,71,68,66,65,84,63,41,30.12,30.00,29.87,10,10,10,26,14,33,0.00,0,,191
2013-7-19,94,79,63,66,59,48,84,54,24,29.95,29.90,29.85,10,10,9,18,8,25,0.00,1,Thunderstorm,304
2013-7-20,86,71,56,64,59,54,93,69,44,30.00,29.93,29.86,10,10,6,22,7,26,0.04,2,Rain-Thunderstorm,110
2013-7-21,91,77,62,67,64,60,93,66,38,29.94,29.83,29.75,10,10,6,17,5,22,0.02,1,Rain-Thunderstorm,141
2013-7-22,96,82,68,70,65,57,90,64,38,29.85,29.77,29.73,10,10,10,20,11,26,0.00,0,,289
2013-7-23,83,72,61,63,60,57,93,68,43,30.02,29.94,29.85,10,10,10,21,8,26,0.05,1,Rain-Thunderstorm,54
2013-7-24,86,70,54,63,57,53,93,65,37,30.09,30.04,29.99,10,10,9,12,4,16,0.00,1,,184
2013-7-25,90,77,64,68,63,56,100,67,34,30.02,29.98,29.91,10,9,1,20,10,31,0.42,3,Rain-Thunderstorm,202
2013-7-26,73,64,55,63,54,49,100,74,47,30.16,30.10,30.00,10,10,6,24,12,29,0.00,1,,330
2013-7-27,73,61,49,50,46,43,93,65,37,30.17,30.11,30.04,10,10,10,16,5,22,0.00,0,,339
2013-7-28,77,61,44,54,48,42,93,66,38,30.08,30.05,30.01,10,10,10,10,5,15,0.00,1,,108
2013-7-29,64,61,58,63,58,49,100,80,60,30.06,30.03,30.01,10,6,1,15,7,20,0.17,8,Rain,122
2013-7-30,77,70,63,65,63,62,93,79,64,30.13,30.08,30.04,10,6,1,8,3,10,0.00,7,,29
2013-7-31,85,72,59,66,62,57,100,74,47,30.15,30.11,30.06,10,7,1,15,4,21,0.00,1,,344